{"data":{"norad_id":62640,"intl_designator":"2025-009AH","name":"NUSAT-45 (UZMASAT-1)","alt_names":[],"object_type":"PAYLOAD","status":"ACTIVE","operator":null,"country":"ARGN","launch_date":"2025-01-14","launch_site_code":"AFWTR","launch_vehicle":null,"mission":null,"orbit_class":"UNKNOWN","rcs_meters":null,"size_class":null,"mass_kg":null,"dimensions":null,"purposes":[],"wikipedia_slug":null,"has_3d_model":false,"image_url":null,"decayed_at":null,"tle_current":{"epoch":"2026-05-24T18:40:19.515360Z","epoch_age_seconds":90297,"freshness":"FRESH","line1":"1 62640U 25009AH  26144.77800365  .00007991  00000+0  27705-3 0  9996","line2":"2 62640  97.3595 226.1971 0003186  75.0345 285.1248 15.30077605 75341","mean_motion":15.30077605,"eccentricity":0.0003186,"inclination_deg":97.3595,"raan_deg":226.1971,"arg_perigee_deg":75.0345,"mean_anomaly_deg":285.1248,"bstar":0.00027705,"rev_number":7534,"period_min":94.112873444743,"perigee_km":473.39694877907,"apogee_km":477.76413759758,"semimajor_km":6853.7175431883,"source":"CELESTRAK","updated_at":"2026-05-25T13:38:03.135205Z"}}}